Weather History for Sarasota, FL

Change the Weather History Date:

Saturday, December 22, 2012

  Actual Average Record
Temperature  
Mean Temperature 52 °F 62 °F  
Max Temperature 63 °F 72 °F 85 °F (1998)
Min Temperature 40 °F 53 °F 31 °F (1973)
Degree Days  
Heating Degree Days 13 4  
Month to date heating degree days 19 75  
Since 1 July heating degree days 60 108  
Cooling Degree Days 0 2  
Month to date cooling degree days 90 58  
Year to date cooling degree days 3814 3358  
Growing Degree Days 2 (Base 50)    
Moisture  
Dew Point 35 °F    
Average Humidity 54    
Maximum Humidity 82    
Minimum Humidity 27    
Precipitation  
Precipitation 0.00 in 0.10 in 2.18 in (1972)
Month to date precipitation 1.32 1.80  
Year to date precipitation 45.36 52.28  
Sea Level Pressure  
Sea Level Pressure 30.25 in    
Wind  
Wind Speed 7 mph (North)    
Max Wind Speed 15 mph    
Max Gust Speed 20 mph    
Visibility 10 miles    
Events      
T = Trace of Precipitation, MM = Missing Value Source: NWS Daily Summary

Daily Weather History Graph

Daily Weather History Graph

Search for Another Location

Airport:

Trip Planner

Search our weather history database for the weather conditions in past years. The results will help you decide how hot, cold, wet, or windy it might be!

Date:

Astronomy

Dec. 22, 2012 Rise Set
Actual Time 7:16 AM EST 5:41 PM EST
Civil Twilight 6:51 AM EST 6:07 PM EST
Nautical Twilight 6:22 AM EST 6:36 PM EST
Astronomical Twilight 5:53 AM EST 7:04 PM EST
Moon 1:44 PM EST (12/22) 2:17 AM EST (12/22)
Length of Visible Light 11h 16m
Length of Day
10h 24m
Waxing Gibbous, 73% of the Moon is Illuminated
Dec 22
Waxing Gibbous
Dec 28
Full
Jan 4
Last Quarter
Jan 11
New
Jan 18
First Quarter

Hourly Weather History & Observations

Time (EST) Temp. Windchill Dew Point Humidity Pressure Visibility Wind Dir Wind Speed Gust Speed Precip Events Conditions
12:53 AM 54.0 °F - 37.0 °F 53% 30.22 in 10.0 mi NNW 6.9 mph - N/A   Clear
1:53 AM 53.1 °F - 36.0 °F 52% 30.21 in 10.0 mi North 10.4 mph - N/A   Clear
2:53 AM 53.1 °F - 36.0 °F 52% 30.22 in 10.0 mi North 8.1 mph - N/A   Clear
3:53 AM 52.0 °F - 36.0 °F 54% 30.21 in 10.0 mi North 6.9 mph - N/A   Clear
4:53 AM 52.0 °F - 34.0 °F 50% 30.21 in 10.0 mi North 11.5 mph 19.6 mph N/A   Clear
5:53 AM 50.0 °F - 35.1 °F 57% 30.23 in 10.0 mi North 10.4 mph 17.3 mph N/A   Clear
6:53 AM 46.0 °F 43.9 °F 36.0 °F 68% 30.25 in 10.0 mi NE 4.6 mph - N/A   Clear
7:53 AM 42.1 °F 39.2 °F 36.0 °F 79% 30.28 in 10.0 mi East 4.6 mph - N/A   Clear
8:53 AM 48.0 °F - 37.0 °F 66% 30.30 in 10.0 mi NE 3.5 mph - N/A   Clear
9:53 AM 55.0 °F - 39.0 °F 55% 30.30 in 10.0 mi North 9.2 mph - N/A   Clear
10:53 AM 57.0 °F - 37.9 °F 49% 30.30 in 10.0 mi North 10.4 mph - N/A   Clear
11:53 AM 59.0 °F - 37.0 °F 44% 30.28 in 10.0 mi North 8.1 mph - N/A   Clear
12:53 PM 61.0 °F - 34.0 °F 36% 30.25 in 10.0 mi NNW 12.7 mph - N/A   Clear
1:53 PM 62.1 °F - 28.9 °F 29% 30.24 in 10.0 mi North 11.5 mph - N/A   Clear
2:53 PM 62.1 °F - 28.0 °F 28% 30.22 in 10.0 mi NNW 9.2 mph - N/A   Clear
3:53 PM 62.1 °F - 28.0 °F 28% 30.22 in 10.0 mi North 9.2 mph - N/A   Clear
4:53 PM 60.1 °F - 28.0 °F 30% 30.22 in 10.0 mi NNW 6.9 mph - N/A   Clear
5:53 PM 53.1 °F - 34.0 °F 48% 30.23 in 10.0 mi NW 6.9 mph - N/A   Clear
6:53 PM 51.1 °F - 35.1 °F 54% 30.24 in 10.0 mi NW 5.8 mph - N/A   Clear
7:53 PM 48.9 °F - 36.0 °F 61% 30.25 in 10.0 mi NNW 3.5 mph - N/A   Clear
8:53 PM 45.0 °F - 36.0 °F 71% 30.26 in 10.0 mi Calm Calm - N/A   Clear
9:53 PM 44.1 °F 41.5 °F 37.0 °F 76% 30.25 in 10.0 mi NNE 4.6 mph - N/A   Clear
10:53 PM 43.0 °F 41.3 °F 37.9 °F 82% 30.25 in 10.0 mi NE 3.5 mph - N/A   Clear
11:53 PM 41.0 °F - 37.0 °F 86% 30.25 in 10.0 mi Calm Calm - N/A   Clear